GOES 1

operational
NORAD ID: 8366 Int'l Des: 1975-100 Owner: NOAA Country: US
HEOCIRCULARGSO

关于 GOES 1

正在加载描述...

实时位置

正在加载3D地球...

即将过境

高度历史

Altitude vs Time

uPlot chart will show altitude changes over time

两行轨道根数

1 8366U 75100A 26063.13312757 -.00000003 00000-0 00000+0 0 9995
2 8366 4.8753 278.7534 0005420 359.8228 170.6193 1.00237378184018
Epoch: Mar 4, 2026 • Age: 19 hours

当前状态

高度 35781.5 km
速度 3.08 km/s
星下点 3.88°N, 120.72°W
类型 weather

大型星座

Loading constellations...